[[{"header":{"parameterUnit":"m.s-1","parameterCategory":1,"la1":30.2991,"la2":30.254,"lo1":-89.0895,"lo2":-89.0444,"dy":0.0017,"dx":0.0017,"nx":28,"ny":28,"refTime":"2023-05-26T21:00:00:Z","depth":0,"parameterNumber":2,"parameterNumberName":"U-component_of_WINDS"},"data":[0,0,0,0,0,0,0,0,0,0,0,0,0,0,0,0,0,0,0,0,0,0,0,0,0,0,0,0,0,0,0,0,0,0,0,0,0,0,0,0,0,0,0,0,0,0,0,0,0,0,0,0,0,0,0,0,0,0,-6.3635,-6.3635,0,-6.3688,-6.3689,-6.3689,-6.3511,-6.3505,-6.35,-6.3495,-6.355,-6.3557,-6.3563,0,0,0,0,0,0,0,0,0,0,0,0,0,-6.3379,-6.3385,-6.3635,-6.3636,-6.3636,-6.3688,-6.3689,-6.369,-6.3512,-6.3505,-6.3499,-6.3492,-6.3548,-6.3556,-6.3564,0,0,0,0,0,0,0,0,0,0,0,0,0,-6.3467,-6.3387,-6.3635,-6.3554,-6.3547,-6.3688,-6.3689,-6.369,-6.3513,-6.3505,-6.3497,-6.3489,-6.3546,-6.3555,-6.3565,-6.3787,0,0,-6.3595,-6.3599,0,0,0,0,0,0,0,0,-6.3462,-6.3477,-6.3565,-6.356,-6.3552,-6.3584,-6.3619,-6.3722,-6.3515,-6.3526,-6.3495,-6.3485,-6.3568,-6.3576,-6.3603,-6.3789,-6.3792,-6.3595,-6.3601,-6.3605,-6.3608,0,0,0,0,0,0,0,-6.3457,-6.3473,-6.3656,-6.3566,-6.3559,-6.3515,-6.3518,-6.3638,-6.3592,-6.3524,-6.3512,-6.352,-6.3563,-6.3595,-6.3603,-6.3792,-6.3595,-6.3604,-6.361,-6.3614,-6.4161,-6.417,0,0,0,0,0,0,-6.3461,-6.347,-6.3654,-6.3657,-6.3487,-6.3526,-6.353,-6.3582,-6.359,-6.3583,-6.3527,-6.3512,-6.3582,-6.3592,-6.3605,-6.3863,-6.3605,-6.3615,-6.362,-6.4153,-6.4163,-6.4173,0,0,0,0,0,0,-6.3456,-6.3479,-6.3652,-6.356,-6.3579,-6.3539,-6.3599,-6.3588,-6.3618,-6.3592,-6.3583,-6.3567,-6.3576,-6.3591,-6.3742,-6.3863,-6.3619,-6.3628,-6.4143,-6.4156,-6.4168,-6.4384,0,0,0,0,0,0,-6.345,-6.3479,-6.3562,-6.3563,-6.3584,-6.3789,-6.3607,-6.3595,-6.3636,-6.3616,-6.3627,-6.3622,-6.3571,-6.3729,-6.3752,-6.3872,-6.3635,-6.4132,-6.4149,-6.4164,-6.4366,-6.4402,-6.4434,0,0,0,0,0,-6.3441,-6.3621,-6.3568,-6.3591,-6.3688,-6.3797,-6.3808,-6.3746,-6.3646,-6.373,-6.3713,-6.3621,-6.3847,-6.3746,-6.377,-6.3895,-6.4124,-6.4144,-6.4163,-6.435,-6.4395,-6.4433,0,0,0,0,0,0,-6.3636,-6.362,-6.356,-6.3746,-6.3774,-6.3766,-6.387,-6.3796,-6.3853,-6.3832,-6.3753,-6.3757,-6.3922,-6.3924,-6.3812,-6.4109,-6.3968,-6.3993,-6.4102,-6.4144,-6.4178,-6.4173,-6.3643,0,0,0,0,0,-6.37,-6.3789,-6.3771,-6.3937,-6.3954,-6.391,-6.3955,-6.3905,-6.393,-6.3941,-6.3935,-6.3964,-6.404,-6.4093,-6.4162,-6.4366,-6.4365,-6.4464,-6.4498,-6.4526,-6.4548,-6.4655,-6.4698,-6.4237,-6.4237,-6.4237,0,0,-6.3834,-6.3837,-6.3898,-6.3976,-6.3991,-6.4085,-6.3921,-6.4028,-6.4096,-6.3957,-6.4099,-6.4097,-6.4123,-6.4301,-6.4379,-6.4308,-6.4676,-6.4551,-6.4574,-6.4581,-6.4679,-6.4723,-6.4762,-6.425,-6.4248,-6.4246,0,0,-6.4126,-6.4138,-6.4276,-6.4295,-6.4321,-6.4291,-6.4325,-6.4329,-6.4321,-6.4462,-6.436,-6.4441,-6.4575,-6.4598,-6.4627,-6.4929,-6.4846,-6.4954,-6.5132,-6.5237,-6.5273,-6.5305,-6.5411,-6.545,-6.4977,-6.4978,-6.4978,0,-6.4289,-6.4426,-6.4357,-6.447,-6.4507,-6.4386,-6.4525,-6.4547,-6.4595,-6.4624,-6.4543,-6.4709,-6.4718,-6.4899,-6.4973,-6.5002,-6.5037,-6.4951,-6.5274,-6.5305,-6.5333,-6.5433,-6.5473,-6.499,-6.4989,-6.4988,-6.4986,0,-6.4624,-6.4721,-6.483,-6.4879,-6.4928,-6.5054,-6.5004,-6.5063,-6.5009,-6.4987,-6.5132,-6.514,-6.5208,-6.5248,-6.5197,-6.5422,-6.5377,-6.5287,-6.5142,-6.5391,-6.5483,-6.5521,-6.5009,-6.5004,-6.5,-6.4997,0,0,-6.5037,-6.5047,-6.5088,-6.5108,-6.5128,-6.5201,-6.5322,-6.5389,-6.544,-6.5478,-6.5576,-6.5693,-6.561,-6.5643,-6.5594,-6.5686,-6.5922,-6.5584,-6.5583,-6.5645,-6.617,-6.6235,-6.6281,-6.5869,-6.5876,-6.5882,-6.6166,0,-6.5322,-6.5528,-6.547,-6.5675,-6.5763,-6.5651,-6.5756,-6.578,-6.5764,-6.5836,-6.5818,-6.5901,-6.5786,-6.5805,-6.5891,-6.5875,-6.6026,-6.5854,-6.5958,-6.5963,-6.5953,-6.6329,-6.6399,-6.6668,-6.6202,-6.6209,-6.6213,0,-6.5681,-6.5732,-6.5947,-6.5952,-6.5987,-6.6082,-6.6138,-6.6209,-6.6234,-6.6216,-6.6254,-6.6186,-6.6304,-6.6162,-6.6324,-6.6208,-6.6248,-6.6247,-6.6255,-6.626,-6.6101,-6.6343,-6.6752,-6.6792,-6.627,-6.6265,-6.6261,0,-6.5958,-6.6081,-6.6225,-6.6246,-6.6256,-6.6326,-6.6333,-6.635,-6.6394,-6.6444,-6.6471,-6.6535,-6.6569,-6.662,-6.657,-6.6471,-6.674,-6.6593,-6.6726,-6.6728,-6.6785,-6.6782,-6.7205,-6.6816,-6.6816,-6.6815,-6.6814,0,-6.628,-6.6416,-6.6349,-6.6437,-6.6586,-6.6518,-6.6667,-6.6661,-6.6678,-6.6763,-6.6671,-6.6753,-6.6684,-6.676,-6.6723,-6.6861,-6.6878,-6.6866,-6.6854,-6.6873,-6.6874,-6.6896,-6.6875,-6.6826,-6.6823,-6.6821,-6.6819,0,-6.6613,-6.6574,-6.6723,-6.6721,-6.6724,-6.6833,-6.6831,-6.6912,-6.689,-6.6999,-6.7021,-6.6986,-6.7071,-6.7027,-6.7116,-6.709,-6.727,-6.7234,-6.7261,-6.725,-6.7385,-6.7373,-6.7835,-6.7891,-6.7469,-6.7473,-6.7477,0,-6.682,-6.6921,-6.693,-6.698,-6.6994,-6.7077,-6.712,-6.7059,-6.7108,-6.7145,-6.7222,-6.7299,-6.7357,-6.7498,-6.748,-6.7548,-6.7511,-6.7668,-6.752,-6.7536,-6.751,-6.7504,-6.7513,-6.7697,-6.7702,-6.7706,-6.7709,0,-6.719,-6.7166,-6.7233,-6.7294,-6.7349,-6.7394,-6.7431,-6.7478,-6.7417,-6.7478,-6.7563,-6.7608,-6.7698,-6.7775,-6.7834,-6.7841,-6.7766,-6.7757,-6.7791,-6.7809,-6.782,-6.7814,-6.7339,-6.7746,-6.7742,-6.7739,-6.7737,-6.7736,-6.7464,-6.7548,-6.7567,-6.7645,-6.7667,-6.7704,-6.778,-6.7767,-6.7837,-6.7905,-6.7865,-6.7965,-6.7988,-6.8058,-6.8076,-6.8153,-6.809,-6.8141,-6.8152,-6.8165,-6.8182,-6.7811,-6.8164,-6.8163,-6.8162,-6.8161,-6.816,0,-6.7827,-6.7834,-6.7906,-6.7961,-6.8022,-6.7947,-6.7984,-6.804,-6.8129,-6.8157,-6.8216,-6.8314,-6.8389,-6.8378,-6.8446,-6.851,-6.8477,-6.853,-6.8523,-6.8526,-6.8236,-6.8198,-6.8556,-6.8556,-6.8555,-6.8555,-6.8555,-6.8555,-6.8023,-6.816,-6.8139,-6.8287,-6.8293,-6.839,-6.8418,-6.8452,-6.8473,-6.8587,-6.8648,-6.8641,-6.8653,-6.8721,-6.8787,-6.8781,-6.881,-6.8875,-6.8858,-6.8586,-6.8547,-6.8509,-6.8473,-6.8883,-6.8883,-6.914,-6.9143,-6.9145]},{"header":{"parameterUnit":"m.s-1","parameterCategory":1,"la1":30.2991,"la2":30.254,"lo1":-89.0895,"lo2":-89.0444,"dy":0.0017,"dx":0.0017,"nx":28,"ny":28,"refTime":"2023-05-26T21:00:00:Z","depth":0,"parameterNumber":3,"parameterNumberName":"V-component_of_WINDS"},"data":[0,0,0,0,0,0,0,0,0,0,0,0,0,0,0,0,0,0,0,0,0,0,0,0,0,0,0,0,0,0,0,0,0,0,0,0,0,0,0,0,0,0,0,0,0,0,0,0,0,0,0,0,0,0,0,0,0,0,-1.014,-1.014,0,-1.018,-1.018,-1.0181,-1.0209,-1.0209,-1.0209,-1.021,-1.025,-1.0251,-1.0252,0,0,0,0,0,0,0,0,0,0,0,0,0,-1.0086,-1.0087,-1.014,-1.014,-1.0141,-1.018,-1.018,-1.0181,-1.0209,-1.0209,-1.021,-1.021,-1.025,-1.0251,-1.0252,0,0,0,0,0,0,0,0,0,0,0,0,0,-1.0116,-1.0088,-1.014,-1.016,-1.0162,-1.018,-1.018,-1.0181,-1.0209,-1.0209,-1.021,-1.021,-1.0249,-1.0251,-1.0252,-1.0253,0,0,-1.0256,-1.0256,0,0,0,0,0,0,0,0,-1.0115,-1.0118,-1.0156,-1.0158,-1.0161,-1.019,-1.0176,-1.0205,-1.0209,-1.0191,-1.021,-1.021,-1.023,-1.0233,-1.0239,-1.0255,-1.0256,-1.0256,-1.0257,-1.0257,-1.0258,0,0,0,0,0,0,0,-1.0112,-1.0117,-1.0156,-1.0157,-1.016,-1.0166,-1.0171,-1.0182,-1.0208,-1.0193,-1.0195,-1.0199,-1.0231,-1.0238,-1.024,-1.0257,-1.0256,-1.0257,-1.0258,-1.0258,-1.0273,-1.0273,0,0,0,0,0,0,-1.0107,-1.0115,-1.0154,-1.0157,-1.0138,-1.0167,-1.0172,-1.018,-1.0208,-1.0212,-1.0199,-1.02,-1.0236,-1.0239,-1.0242,-1.0244,-1.0257,-1.0258,-1.0259,-1.0274,-1.0273,-1.0273,0,0,0,0,0,0,-1.0106,-1.0111,-1.0153,-1.0136,-1.0142,-1.0167,-1.0176,-1.0181,-1.0188,-1.0213,-1.0217,-1.0201,-1.0236,-1.024,-1.025,-1.0246,-1.0259,-1.026,-1.0274,-1.0274,-1.0273,-1.0248,0,0,0,0,0,0,-1.0105,-1.011,-1.0111,-1.0136,-1.0143,-1.016,-1.0176,-1.0181,-1.019,-1.0192,-1.0216,-1.022,-1.0237,-1.0247,-1.0251,-1.0248,-1.0261,-1.0275,-1.0274,-1.0273,-1.025,-1.0247,-1.0245,0,0,0,0,0,-1.0103,-1.0103,-1.0111,-1.0116,-1.0145,-1.016,-1.0164,-1.0183,-1.019,-1.0191,-1.0206,-1.022,-1.0245,-1.0248,-1.0252,-1.0249,-1.0275,-1.0274,-1.0273,-1.0251,-1.0247,-1.0245,0,0,0,0,0,0,-1.0078,-1.0107,-1.0116,-1.0125,-1.014,-1.0165,-1.0167,-1.0179,-1.0192,-1.0194,-1.0216,-1.0221,-1.0228,-1.024,-1.0242,-1.0251,-1.0262,-1.0262,-1.0243,-1.024,-1.0238,-1.0235,-1.0262,0,0,0,0,0,-1.0073,-1.0083,-1.0108,-1.0113,-1.012,-1.0142,-1.0149,-1.0162,-1.0178,-1.0185,-1.0201,-1.0216,-1.0227,-1.0235,-1.0246,-1.0251,-1.0256,-1.0251,-1.0249,-1.0246,-1.0246,-1.0248,-1.0246,-1.027,-1.027,-1.027,0,0,-1.0064,-1.0081,-1.0086,-1.0108,-1.0122,-1.0131,-1.0147,-1.0157,-1.0163,-1.0186,-1.0196,-1.0208,-1.0226,-1.0233,-1.0237,-1.0243,-1.024,-1.0245,-1.0243,-1.0244,-1.0247,-1.0244,-1.0242,-1.027,-1.027,-1.027,0,0,-1.0052,-1.0066,-1.0071,-1.0084,-1.0103,-1.0117,-1.0118,-1.0141,-1.015,-1.016,-1.0177,-1.0185,-1.0204,-1.0216,-1.0224,-1.0214,-1.0227,-1.0217,-1.0205,-1.0206,-1.0204,-1.0203,-1.0198,-1.0196,-1.0217,-1.0217,-1.0217,0,-1.0038,-1.0053,-1.0072,-1.008,-1.0089,-1.011,-1.0114,-1.0125,-1.0147,-1.0153,-1.0159,-1.0183,-1.0196,-1.0205,-1.0203,-1.0209,-1.021,-1.0215,-1.0203,-1.0202,-1.02,-1.0196,-1.0195,-1.0216,-1.0216,-1.0216,-1.0216,0,-1.0034,-1.0044,-1.0046,-1.0066,-1.0075,-1.0081,-1.0101,-1.0107,-1.0119,-1.0132,-1.0141,-1.0158,-1.0173,-1.0176,-1.0188,-1.0186,-1.0189,-1.0199,-1.021,-1.0196,-1.0193,-1.0191,-1.0214,-1.0214,-1.0215,-1.0215,0,0,-1.0009,-1.0038,-1.0039,-1.0047,-1.0069,-1.0077,-1.0083,-1.0098,-1.0102,-1.0116,-1.0121,-1.0136,-1.0145,-1.0155,-1.0168,-1.0169,-1.0158,-1.0179,-1.0179,-1.0174,-1.0156,-1.0148,-1.0146,-1.0166,-1.0166,-1.0166,-1.0154,0,-1.0,-1.0013,-1.003,-1.0037,-1.0045,-1.0064,-1.0069,-1.0082,-1.0094,-1.0103,-1.0116,-1.0126,-1.0137,-1.0143,-1.0145,-1.0159,-1.0155,-1.016,-1.0171,-1.0171,-1.0166,-1.0144,-1.0136,-1.0124,-1.0153,-1.0153,-1.0153,0,-0.9991,-1.0004,-1.0011,-1.003,-1.0035,-1.0039,-1.0053,-1.0061,-1.0076,-1.0084,-1.0094,-1.0107,-1.0114,-1.0124,-1.0133,-1.0136,-1.0141,-1.0148,-1.0148,-1.015,-1.0161,-1.0145,-1.0121,-1.0119,-1.0151,-1.0151,-1.0151,0,-0.9971,-0.9989,-0.9996,-1.0003,-1.0026,-1.0028,-1.0038,-1.0053,-1.006,-1.0071,-1.0076,-1.0088,-1.0095,-1.0103,-1.0119,-1.0125,-1.0126,-1.0138,-1.0133,-1.0132,-1.0132,-1.0132,-1.0108,-1.0136,-1.0136,-1.0136,-1.0136,0,-0.9959,-0.9963,-0.9987,-0.9991,-0.9995,-1.0014,-1.0017,-1.0028,-1.0041,-1.0047,-1.0064,-1.0069,-1.009,-1.0097,-1.011,-1.0114,-1.0117,-1.0124,-1.0127,-1.0122,-1.0121,-1.0126,-1.0127,-1.0136,-1.0136,-1.0136,-1.0136,0,-0.9937,-0.9954,-0.9962,-0.9982,-0.9987,-0.9989,-1.0006,-1.001,-1.0023,-1.003,-1.0032,-1.0052,-1.0061,-1.0077,-1.0092,-1.01,-1.0102,-1.0108,-1.0096,-1.0098,-1.0092,-1.0092,-1.0071,-1.0068,-1.0097,-1.0097,-1.0097,0,-0.9929,-0.9932,-0.9952,-0.9957,-0.9965,-0.9973,-0.998,-0.9998,-1.0004,-1.002,-1.0022,-1.0032,-1.0041,-1.0055,-1.007,-1.008,-1.0086,-1.0078,-1.0088,-1.0082,-1.0085,-1.0084,-1.0084,-1.0075,-1.0075,-1.0075,-1.0074,0,-0.9911,-0.9918,-0.9928,-0.9939,-0.9946,-0.9956,-0.9967,-0.997,-0.999,-0.9995,-1.0005,-1.0012,-1.0025,-1.0035,-1.0047,-1.0056,-1.0068,-1.0071,-1.007,-1.0065,-1.0058,-1.0061,-1.009,-1.0071,-1.0072,-1.0072,-1.0072,-1.0072,-0.9895,-0.9898,-0.9912,-0.9921,-0.9931,-0.994,-0.9944,-0.9956,-0.9964,-0.9976,-0.9986,-0.9994,-1.0007,-1.0025,-1.0033,-1.0039,-1.0045,-1.0044,-1.0044,-1.0043,-1.0041,-1.0057,-1.0041,-1.0041,-1.0042,-1.0042,-1.0042,0,-0.9878,-0.9887,-0.9895,-0.9909,-0.9915,-0.9926,-0.9937,-0.9942,-0.9949,-0.996,-0.9968,-0.9978,-0.9987,-1.0002,-1.0011,-1.0013,-1.0019,-1.0015,-1.0015,-1.0017,-1.0035,-1.0035,-1.001,-1.001,-1.001,-1.001,-1.001,-1.001,-0.9869,-0.9874,-0.9883,-0.9892,-0.9902,-0.991,-0.9915,-0.9923,-0.9932,-0.9942,-0.9949,-0.9958,-0.997,-0.9981,-0.9989,-0.9993,-0.9996,-0.999,-0.9996,-1.0013,-1.0016,-1.0019,-1.0018,-0.9991,-0.9991,-0.9977,-0.9977,-0.9977]}]]